This demonstration page uses our WeatherBlox Daily Observations layout. Learn more.

Hourly Observations for January 19, 2019

Temp ( °F °C ) Dew Point ( °F °C ) Humidity (%) Winds ( mph kmh ) Pressure ( in mb ) Visibility ( mi km ) Precip ( " mm )
12:15 am 00:15 Cloudy 34 1 34 1 100 100 Calm 30.24 1024 10 16.09344 0 0
12:35 am 00:35 Cloudy 32 0 32 0 100 100 NNE 3 6 30.24 1024 7 11.265408 0 0
12:55 am 00:55 Cloudy 32 0 32 0 100 100 Calm 30.24 1024 7 11.265408 0 0
1:15 am 01:15 Cloudy 32 0 32 0 100 100 Calm 30.24 1024 7 11.265408 0 0
1:35 am 01:35 Cloudy 34 1 34 1 100 100 Calm 30.24 1024 10 16.09344 0 0
1:55 am 01:55 Cloudy 34 1 34 1 100 100 Calm 30.24 1024 10 16.09344 0 0
2:15 am 02:15 Cloudy 32 0 32 0 100 100 Calm 30.24 1024 7 11.265408 0 0
2:35 am 02:35 Cloudy 34 1 34 1 100 100 Calm 30.24 1024 10 16.09344 0 0
2:55 am 02:55 Cloudy 34 1 34 1 100 100 Calm 30.24 1024 10 16.09344 0 0
3:15 am 03:15 Cloudy 32 0 32 0 100 100 Calm 30.24 1024 10 16.09344 0 0
3:35 am 03:35 Cloudy 32 0 32 0 100 100 Calm 30.24 1024 10 16.09344 0 0
3:55 am 03:55 Cloudy 34 1 34 1 100 100 Calm 30.24 1024 10 16.09344 0 0
4:15 am 04:15 Cloudy 32 0 32 0 100 100 Calm 30.21 1023 10 16.09344 0 0
4:35 am 04:35 Cloudy 32 0 32 0 100 100 Calm 30.21 1023 10 16.09344 0 0
4:55 am 04:55 Cloudy 34 1 34 1 100 100 Calm 30.21 1023 10 16.09344 0 0
5:15 am 05:15 Cloudy 34 1 34 1 100 100 Calm 30.21 1023 10 16.09344 0 0
5:35 am 05:35 Cloudy 34 1 34 1 100 100 Calm 30.21 1023 10 16.09344 0 0
5:55 am 05:55 Cloudy 32 0 32 0 100 100 Calm 30.21 1023 7 11.265408 0 0
6:15 am 06:15 Cloudy 34 1 34 1 100 100 Calm 30.21 1023 10 16.09344 0 0
6:35 am 06:35 Cloudy 34 1 34 1 100 100 Calm 30.21 1023 10 16.09344 0 0
6:55 am 06:55 Cloudy 34 1 34 1 100 100 Calm 30.21 1023 10 16.09344 0 0
7:15 am 07:15 Cloudy 34 1 34 1 100 100 Calm 30.21 1023 10 16.09344 0 0
7:35 am 07:35 Cloudy 34 1 34 1 100 100 Calm 30.24 1024 10 16.09344 0 0
7:55 am 07:55 Cloudy 34 1 34 1 100 100 Calm 30.24 1024 10 16.09344 0 0
8:15 am 08:15 Cloudy 34 1 34 1 100 100 Calm 30.24 1024 10 16.09344 0 0
8:35 am 08:35 Cloudy 36 2 34 1 93 93 E 5 7 30.24 1024 10 16.09344 0 0
8:55 am 08:55 Cloudy 36 2 34 1 93 93 ESE 5 7 30.24 1024 10 16.09344 0 0
9:15 am 09:15 Cloudy 36 2 34 1 93 93 ESE 5 7 30.24 1024 7 11.265408 0 0
9:35 am 09:35 Cloudy 36 2 34 1 93 93 SE 3 6 30.24 1024 7 11.265408 0 0
9:55 am 09:55 Cloudy with Mist and Fog 36 2 34 1 93 93 ESE 3 6 30.24 1024 5 8.04672 0 0
10:15 am 10:15 Cloudy with Mist and Fog 36 2 34 1 93 93 SE 5 7 30.21 1023 5 8.04672 0 0
10:35 am 10:35 Cloudy 36 2 34 1 93 93 SSE 3 6 30.24 1024 7 11.265408 0 0
10:55 am 10:55 Cloudy 37 3 34 1 87 87 SE 5 7 30.21 1023 7 11.265408 0 0
11:15 am 11:15 Cloudy 37 3 34 1 87 87 SE 5 7 30.21 1023 7 11.265408 0 0
11:35 am 11:35 Cloudy with Light Rain 37 3 34 1 87 87 SE 7 11 30.18 1022 5 8.04672 0 0
11:55 am 11:55 Cloudy 37 3 34 1 87 87 SE 9 15 30.18 1022 7 11.265408 0 0
12:15 pm 12:15 Cloudy 37 3 34 1 87 87 SE 8 13 30.15 1021 10 16.09344 0 0
12:35 pm 12:35 Cloudy 37 3 34 1 87 87 SE 10 17 30.15 1021 10 16.09344 0 0
12:55 pm 12:55 Cloudy 37 3 34 1 87 87 SSE 10 17 30.12 1020 10 16.09344 0 0
1:15 pm 13:15 Cloudy 37 3 34 1 87 87 SSE 8 13 30.12 1020 7 11.265408 0 0
1:35 pm 13:35 Cloudy 37 3 34 1 87 87 ESE 6 9 30.09 1019 7 11.265408 0 0
1:55 pm 13:55 Cloudy with Mist and Fog 37 3 34 1 87 87 ESE 6 9 30.09 1019 5 8.04672 0 0
2:15 pm 14:15 Cloudy with Mist and Fog 37 3 34 1 87 87 SE 6 9 30.09 1019 5 8.04672 0 0
2:35 pm 14:35 Cloudy with Mist and Fog 37 3 36 2 93 93 ESE 7 11 30.06 1018 5 8.04672 0 0
2:55 pm 14:55 Cloudy with Mist and Fog 37 3 36 2 93 93 ESE 6 9 30.06 1018 5 8.04672 0 0
3:15 pm 15:15 Cloudy with Mist and Fog 37 3 36 2 93 93 ESE 6 9 30.06 1018 3 4.828032 0 0
3:35 pm 15:35 Cloudy with Mist and Fog 36 2 36 2 100 100 ESE 5 7 30.03 1017 3 4.828032 0 0
3:55 pm 15:55 Cloudy with Mist and Fog 37 3 36 2 93 93 ESE 8 13 30 1016 4 6.437376 0 0
4:15 pm 16:15 Cloudy with Light Rain 36 2 36 2 100 100 SE 8 13 30 1016 2 3.218688 0.01 0.254
4:35 pm 16:35 Cloudy with Light Rain 36 2 36 2 100 100 SE 7 11 30 1016 2 3.218688 0.01 0.254
4:55 pm 16:55 Cloudy with Rain 36 2 36 2 100 100 SE 6 9 29.97 1015 1 1.609344 0.02 0.508
5:15 pm 17:15 Cloudy with Rain 36 2 36 2 100 100 ESE 7 11 29.97 1015 2 3.218688 0.01 0.254
5:35 pm 17:35 Cloudy with Light Rain 36 2 36 2 100 100 E 6 9 29.94 1014 2 3.218688 0.02 0.508
5:55 pm 17:55 Cloudy with Rain 36 2 36 2 100 100 E 5 7 29.94 1014 2 3.218688 0.03 0.762
6:15 pm 18:15 Cloudy with Light Wintry Mix 34 1 34 1 100 100 NE 6 9 29.91 1013 1.5 2.414016 0.03 0.762
6:35 pm 18:35 Cloudy with Light Wintry Mix 34 1 34 1 100 100 ENE 7 11 29.91 1013 1.75 2.816352 0.08 2.032
6:55 pm 18:55 Cloudy with Light Snow 34 1 34 1 100 100 ENE 6 9 29.91 1013 2 3.218688 0.11 2.794
7:15 pm 19:15 Cloudy with Light Snow 34 1 34 1 100 100 ENE 6 9 29.88 1012 1.5 2.414016 0.04 1.016
7:35 pm 19:35 Cloudy with Light Snow 34 1 34 1 100 100 Calm 29.91 1013 1.75 2.816352 0.08 2.032
7:55 pm 19:55 Cloudy with Light Wintry Mix 34 1 34 1 100 100 NNE 6 9 29.85 1011 2 3.218688 0.11 2.794
8:15 pm 20:15 Cloudy with Light Snow 34 1 34 1 100 100 NE 5 7 29.83 1010 1.25 2.01168 0.04 1.016
8:35 pm 20:35 Cloudy with Light Wintry Mix 34 1 34 1 100 100 NNE 5 7 29.83 1010 1.75 2.816352 0.06 1.524
8:55 pm 20:55 Cloudy with Light Snow 34 1 34 1 100 100 NNE 6 9 29.8 1009 1.5 2.414016 0.1 2.54
9:10 pm 21:10 Cloudy with Light Snow 34 1 34 1 100 100 NE 5 7 29.8 1009 1.5 2.414016 0.03 0.762
9:35 pm 21:35 Cloudy with Light Snow 32 0 32 0 100 100 NNE 6 9 29.77 1008 1.75 2.816352 0.1 2.54
9:55 pm 21:55 Cloudy with Light Wintry Mix 32 0 32 0 100 100 NNE 6 9 29.77 1008 2 3.218688 0.14 3.556
10:15 pm 22:15 Cloudy with Light Snow 32 0 32 0 100 100 NNE 6 9 29.77 1008 2 3.218688 0.04 1.016
10:35 pm 22:35 Cloudy with Light Snow 32 0 32 0 100 100 NNE 6 9 29.74 1007 2 3.218688 0.08 2.032
10:55 pm 22:55 Cloudy with Light Snow 32 0 32 0 100 100 NNE 5 7 29.74 1007 2 3.218688 0.13 3.302
11:15 pm 23:15 Cloudy with Light Wintry Mix 32 0 32 0 100 100 NNE 3 6 29.71 1006 2.5 4.02336 0.02 0.508
11:35 pm 23:35 Cloudy with Light Snow 32 0 32 0 100 100 NNE 5 7 29.71 1006 2.5 4.02336 0.06 1.524
11:55 pm 23:55 Cloudy with Light Snow 32 0 32 0 100 100 N 3 6 29.71 1006 2.5 4.02336 0.11 2.794

Powered by AerisWeather